[[{"header":{"parameterUnit":"m.s-1","parameterCategory":1,"la1":30.2992,"la2":30.254,"lo1":-89.0895,"lo2":-89.0443,"dy":0.0025,"dx":0.0025,"nx":19,"ny":19,"refTime":"2026-04-05T09:00:00:Z","depth":0,"parameterNumber":2,"parameterNumberName":"U-component_of_WINDS"},"data":[0,0,0,-2.5026,-2.5026,-2.5023,-2.5023,-2.5031,-2.5031,0,0,0,0,0,0,0,0,0,0,0,-2.5033,-2.5033,-2.5026,-2.5026,-2.5023,-2.5023,-2.5031,-2.5031,0,0,0,0,0,0,0,0,0,0,0,-2.5033,-2.5033,-2.5033,-2.5026,-2.5023,-2.5023,-2.5031,-2.5029,0,0,0,0,0,0,0,0,0,0,-2.503,-2.5042,-2.5033,-2.5033,-2.5026,-2.5023,-2.5023,-2.5029,-2.5029,-2.5037,0,-2.5045,0,-2.5038,-2.5032,-2.5032,0,0,0,-2.5021,-2.5042,-2.5036,-2.5034,-2.5026,-2.5023,-2.5023,-2.5029,-2.5029,-2.5037,-2.5045,-2.5045,-2.5038,-2.5032,-2.5032,-2.509,-2.5091,0,0,-2.5022,-2.5036,-2.5035,-2.5036,-2.5037,-2.5023,-2.5023,-2.5029,-2.5038,-2.5045,-2.5045,-2.5038,-2.5033,-2.5033,-2.509,-2.5091,0,0,0,-2.5025,-2.5036,-2.5029,-2.5036,-2.5035,-2.5023,-2.5023,-2.5038,-2.5034,-2.5045,-2.5038,-2.5033,-2.5033,-2.5089,-2.509,-2.5128,0,0,0,-2.5025,-2.5038,-2.503,-2.5039,-2.5035,-2.5036,-2.5032,-2.5034,-2.5034,-2.5038,-2.5033,-2.5033,-2.5089,-2.509,-2.5125,-2.5143,0,0,0,-2.5031,-2.5039,-2.5041,-2.5039,-2.5039,-2.5036,-2.5032,-2.5034,-2.5031,-2.5032,-2.5033,-2.5088,-2.509,-2.5123,-2.514,-2.5162,0,0,0,-2.5042,-2.5074,-2.5041,-2.5075,-2.5039,-2.5059,-2.5032,-2.5047,-2.5053,-2.5033,-2.5089,-2.509,-2.5123,-2.5138,-2.516,-2.5184,-2.5195,0,0,-2.5091,-2.5081,-2.5099,-2.507,-2.51,-2.5058,-2.5093,-2.5086,-2.5073,-2.5086,-2.5087,-2.5126,-2.5139,-2.5162,-2.5252,-2.5261,0,0,0,-2.512,-2.5133,-2.5138,-2.5144,-2.5139,-2.5136,-2.5121,-2.5118,-2.5128,-2.5082,-2.514,-2.5148,-2.516,-2.5171,-2.5178,-2.5188,-2.5096,-2.5095,-2.5095,-2.5209,-2.5191,-2.5221,-2.5203,-2.5209,-2.5193,-2.5197,-2.5191,-2.5171,-2.5185,-2.5188,-2.5245,-2.5258,-2.5264,-2.5274,-2.5199,-2.52,-2.52,-2.52,-2.5279,-2.5296,-2.5268,-2.5287,-2.5268,-2.5284,-2.5271,-2.5256,-2.5269,-2.5241,-2.5251,-2.5223,-2.5274,-2.5282,-2.5202,-2.5202,-2.5202,-2.5201,-2.5201,-2.5336,-2.534,-2.5336,-2.5343,-2.5351,-2.5331,-2.5345,-2.5327,-2.531,-2.532,-2.5322,-2.5321,-2.5318,-2.5322,-2.5323,-2.5323,-2.5323,-2.5323,-2.5323,-2.5396,-2.539,-2.5403,-2.54,-2.5402,-2.5402,-2.5387,-2.5388,-2.5385,-2.5371,-2.5371,-2.535,-2.5283,-2.5266,-2.5326,-2.5326,-2.5325,-2.5325,-2.5325,-2.5473,-2.5453,-2.5473,-2.5475,-2.547,-2.5479,-2.5456,-2.546,-2.5459,-2.5466,-2.5443,-2.5396,-2.5385,-2.5378,-2.5365,-2.5447,-2.5447,-2.5447,-2.5447,-2.552,-2.5513,-2.5529,-2.5533,-2.5535,-2.5517,-2.5541,-2.553,-2.5515,-2.5513,-2.5499,-2.5479,-2.5474,-2.5465,-2.5457,-2.5444,-2.5544,-2.5544,-2.5545,-2.5567,-2.5559,-2.5582,-2.5567,-2.5562,-2.5559,-2.558,-2.5587,-2.5566,-2.5548,-2.5511,-2.5507,-2.5475,-2.5465,-2.5446,-2.5434,-2.541,0,0]},{"header":{"parameterUnit":"m.s-1","parameterCategory":1,"la1":30.2992,"la2":30.254,"lo1":-89.0895,"lo2":-89.0443,"dy":0.0025,"dx":0.0025,"nx":19,"ny":19,"refTime":"2026-04-05T09:00:00:Z","depth":0,"parameterNumber":3,"parameterNumberName":"V-component_of_WINDS"},"data":[0,0,0,-4.9063,-4.9065,-4.9174,-4.9175,-4.9312,-4.9314,0,0,0,0,0,0,0,0,0,0,0,-4.9032,-4.9033,-4.9063,-4.9065,-4.9174,-4.9175,-4.9312,-4.9314,0,0,0,0,0,0,0,0,0,0,0,-4.9031,-4.9032,-4.9034,-4.9066,-4.9174,-4.9175,-4.9312,-4.923,0,0,0,0,0,0,0,0,0,0,-4.9124,-4.9097,-4.9032,-4.9034,-4.9066,-4.9174,-4.9175,-4.9226,-4.9235,-4.9263,0,-4.9291,0,-4.9305,-4.9323,-4.9323,0,0,0,-4.9064,-4.9089,-4.9118,-4.9034,-4.9067,-4.9174,-4.9125,-4.9231,-4.9241,-4.9275,-4.9293,-4.9298,-4.9307,-4.9324,-4.9325,-4.95,-4.9501,0,0,-4.9057,-4.9051,-4.9111,-4.9125,-4.9111,-4.9121,-4.9128,-4.9237,-4.9255,-4.9293,-4.9301,-4.9309,-4.9325,-4.9326,-4.9499,-4.95,0,0,0,-4.9041,-4.9047,-4.9073,-4.9119,-4.9139,-4.9124,-4.9132,-4.925,-4.9259,-4.9302,-4.9311,-4.9326,-4.9327,-4.9498,-4.95,-4.954,0,0,0,-4.9038,-4.9038,-4.9071,-4.9068,-4.9137,-4.9196,-4.9143,-4.9251,-4.9264,-4.931,-4.9326,-4.9329,-4.9497,-4.9499,-4.9537,-4.956,0,0,0,-4.9024,-4.9036,-4.9053,-4.9067,-4.9114,-4.9195,-4.921,-4.9254,-4.9269,-4.9324,-4.9329,-4.9497,-4.9499,-4.9534,-4.9555,-4.9605,0,0,0,-4.9007,-4.9085,-4.9053,-4.9143,-4.9113,-4.922,-4.9209,-4.9288,-4.934,-4.9326,-4.9498,-4.95,-4.9533,-4.9552,-4.9602,-4.9647,-4.9665,0,0,-4.9102,-4.9096,-4.915,-4.9125,-4.9236,-4.9203,-4.9319,-4.9371,-4.938,-4.9459,-4.9463,-4.9538,-4.9555,-4.9604,-4.9767,-4.9781,0,0,0,-4.9177,-4.9216,-4.9247,-4.9297,-4.934,-4.9379,-4.9414,-4.9433,-4.9501,-4.942,-4.9569,-4.958,-4.9609,-4.963,-4.9643,-4.9668,-4.9509,-4.9509,-4.9509,-4.9302,-4.9312,-4.9402,-4.9426,-4.9474,-4.9511,-4.9551,-4.9583,-4.9576,-4.9612,-4.9635,-4.9733,-4.9758,-4.9767,-4.9794,-4.9659,-4.9659,-4.9659,-4.966,-4.9442,-4.9498,-4.9491,-4.9576,-4.9586,-4.9656,-4.9694,-4.9687,-4.9753,-4.9716,-4.9742,-4.9701,-4.9783,-4.9807,-4.9663,-4.9662,-4.9662,-4.9661,-4.9661,-4.9524,-4.9554,-4.9578,-4.9653,-4.9709,-4.9729,-4.9794,-4.98,-4.9805,-4.9831,-4.9857,-4.9856,-4.9857,-4.9843,-4.9844,-4.9844,-4.9844,-4.9845,-4.9845,-4.9601,-4.9627,-4.9682,-4.9736,-4.977,-4.9815,-4.9853,-4.9886,-4.9923,-4.9922,-4.9922,-4.9913,-4.9789,-4.9758,-4.985,-4.9849,-4.9848,-4.9848,-4.9848,-4.9739,-4.971,-4.9795,-4.9829,-4.9894,-4.9949,-4.9957,-5.0023,-5.0051,-5.0082,-5.0068,-4.9975,-4.9969,-4.9959,-4.9934,-5.0065,-5.0065,-5.0065,-5.0065,-4.981,-4.9808,-4.9897,-4.9952,-5.0006,-5.0022,-5.0116,-5.0147,-5.0173,-5.019,-5.0172,-5.0138,-5.0128,-5.0128,-5.0115,-5.0091,-5.0259,-5.026,-5.026,-4.9896,-4.99,-4.998,-5.0009,-5.006,-5.0103,-5.0192,-5.0253,-5.0276,-5.0268,-5.0204,-5.0196,-5.0142,-5.0124,-5.0113,-5.0093,-5.0049,0,0]}]]